Temp
14 14 14 14 14 14 14 14 15 15 15 15 15 15 15 15 15 15 15 15 15 15 15 15 14 14 15 15 15 15 15 15 15 15 15 16 16 17 17 17 17 18 18 18 18 18 18 18 18 18 18 18 18 18 18 18 19 19 19 19 19 19 19 19 19 19 19 19 19
14 14 14 15 14 14 14 14 14 15 15 15 15 15 15 15 15 15 15 15 15 15 15 15 15 14 14 14 15 15 15 15 15 16 16 16 16 17 17 17 17 18 18 18 18 18 18 18 18 18 18 18 18 18 18 18 18 19 19 19 19 19 19 18 18 18 18 18 18
14 14 15 15 14 14 14 14 14 15 15 15 15 16 16 16 16 16 16 16 16 16 16 16 15 15 15 15 15 15 15 15 15 16 16 16 17 17 17 17 18 18 18 18 18 18 18 18 18 18 18 18 18 18 18 18 18 19 19 19 18 18 18 18 18 18 18 18 18
14 14 15 15 14 14 14 14 15 15 15 15 15 15 16 16 16 16 16 16 16 16 16 16 16 16 15 15 15 15 15 15 15 15 16 16 17 17 17 18 18 18 18 18 18 18 18 18 18 18 18 18 18 18 18 18 18 18 18 18 18 18 18 18 18 18 18 18 18
14 14 15 15 15 15 15 15 15 15 15 15 15 15 15 16 16 16 16 16 16 16 16 16 16 16 16 16 15 15 15 15 15 15 16 17 17 17 17 17 17 17 17 18 18 18 18 18 18 18 18 18 18 18 18 18 18 18 18 18 18 18 18 18 18 18 18 17 17
14 14 15 15 15 15 15 15 15 15 15 15 15 15 15 15 15 16 16 16 16 16 16 16 16 16 16 16 16 16 15 15 15 16 16 17 17 17 17 17 17 17 17 17 17 17 18 18 18 18 18 18 18 18 18 18 18 18 18 18 18 18 18 18 17 17 17 17 17
15 15 15 15 15 15 14 14 15 15 15 15 15 15 15 15 15 15 15 15 15 16 16 16 16 16 16 16 16 16 16 16 16 17 17 17 16 16 16 16 16 16 16 17 17 17 17 17 17 17 17 18 18 18 18 18 18 18 17 17 17 17 17 17 17 17 17 17 17
15 15 15 15 15 14 14 14 15 15 15 15 15 15 15 15 15 15 15 15 15 15 15 16 16 16 16 16 16 16 16 16 16 16 16 16 16 16 16 16 16 16 16 16 16 17 17 17 17 17 17 17 17 17 17 17 18 18 17 17 17 17 17 17 17 17 17 17 17
15 15 15 15 15 14 14 14 15 15 15 15 15 15 15 15 15 15 15 15 15 15 15 16 16 16 16 16 16 16 16 16 16 15 15 15 15 15 15 15 15 15 15 16 16 16 16 17 17 17 17 17 17 17 17 17 17 17 17 17 17 17 17 17 17 16 16 16 16
14 14 15 15 15 14 14 14 15 15 15 15 15 15 15 16 15 15 15 15 15 15 15 15 15 16 16 15 15 15 15 15 15 15 15 15 15 15 15 15 15 15 15 15 15 16 16 16 16 16 16 16 16 16 16 16 17 17 17 17 17 17 16 16 16 16 16 16 16
15 15 15 14 15 15 15 14 14 15 15 15 15 15 15 15 15 15 15 15 15 15 15 15 15 15 15 15 15 15 15 15 15 15 15 15 15 15 15 15 15 15 15 15 15 15 15 15 15 16 16 16 16 16 16 16 16 16 16 16 16 16 16 16 16 16 15 15 15
15 15 15 15 15 15 15 15 14 14 14 14 15 15 15 15 15 15 15 14 14 14 15 15 15 15 15 15 15 15 15 15 15 15 15 15 15 15 15 15 15 15 15 15 15 15 15 15 15 15 15 15 15 15 15 16 16 16 16 16 16 16 16 15 15 15 15 15 15
15 15 15 15 15 15 15 14 14 14 14 14 14 14 14 14 14 14 14 14 14 14 14 14 14 15 15 14 14 15 15 15 15 15 15 15 15 15 15 15 15 15 15 15 15 15 15 15 15 15 15 15 15 14 15 15 15 15 15 15 15 15 15 15 15 14 14 14 14
15 15 15 15 15 15 14 14 14 14 14 14 14 14 14 14 14 14 14 14 14 14 14 14 14 14 14 14 15 15 15 15 15 15 15 15 15 15 15 15 15 15 15 15 15 15 15 15 14 14 14 14 14 14 14 14 14 14 14 14 14 14 14 14 14 14 14 14 14
14 14 14 14 14 14 14 14 14 14 14 14 14 14 14 14 14 14 14 14 14 14 14 14 14 14 14 15 15 15 15 15 15 14 14 15 15 15 15 14 14 15 15 15 15 15 15 14 14 14 14 14 14 14 14 14 14 14 14 14 14 14 14 14 14 14 14 14 14
14 14 14 14 14 14 14 14 14 14 14 14 14 14 14 14 14 14 14 14 14 14 14 14 14 14 14 14 15 15 14 14 14 13 13 14 14 14 14 14 14 14 14 14 14 14 14 14 14 14 14 14 14 14 14 15 15 15 15 14 14 14 14 14 14 14 14 14 14
14 14 14 14 14 14 14 14 14 14 13 13 13 13 13 13 14 14 14 14 14 14 13 14 14 14 14 14 14 14 13 13 13 13 13 13 13 13 13 13 13 14 14 14 13 13 14 14 14 14 14 14 14 15 15 15 15 15 15 15 14 14 14 14 14 14 13 13 13
14 14 14 14 14 14 14 14 14 14 13 13 13 13 13 13 14 14 14 14 14 13 13 14 13 13 13 13 13 13 13 13 13 13 13 13 13 13 13 13 13 13 13 13 13 13 14 14 14 14 14 14 14 15 15 15 15 15 15 15 14 14 14 14 13 13 13 13 13
14 14 14 14 14 14 14 14 14 14 14 14 14 13 13 13 13 13 13 13 14 14 14 14 13 13 13 13 13 13 13 13 13 13 14 13 13 13 13 13 13 13 13 13 13 14 14 14 14 14 14 14 14 14 14 15 15 15 15 15 14 14 14 14 14 13 13 13 13
14 14 14 14 14 14 14 14 14 14 14 14 14 14 13 13 13 13 13 13 13 14 14 14 13 13 13 13 13 13 13 13 13 14 14 14 13 13 13 13 13 13 13 13 13 14 14 14 13 14 14 14 14 14 14 14 14 14 14 14 14 14 14 14 14 13 13 12 12
14 14 14 14 14 14 14 14 14 14 14 14 14 14 14 13 13 13 13 13 13 14 14 14 14 13 13 13 13 13 13 13 13 13 14 13 13 13 13 13 13 13 13 13 13 13 14 14 14 14 14 14 14 14 13 13 13 13 13 13 13 14 14 14 13 13 13 12 12
13 13 13 14 14 14 14 14 14 14 14 14 14 14 14 14 13 13 13 13 13 13 14 14 14 14 14 14 14 13 13 13 13 13 13 13 13 13 13 13 13 13 13 13 13 13 13 14 14 14 14 13 13 13 13 13 13 12 12 12 12 13 13 13 13 13 12 12 12
12 12 13 13 13 13 13 14 14 14 14 14 14 14 14 14 14 14 13 13 13 13 13 14 14 14 14 14 14 14 13 13 13 13 13 13 13 13 13 13 13 13 13 13 13 13 13 13 13 13 13 13 13 13 12 12 12 12 12 12 12 12 12 12 12 12 12 12 12
12 12 12 12 13 13 13 13 13 13 13 14 14 14 14 14 14 14 14 14 14 14 14 14 14 14 14 14 14 13 13 13 13 13 13 13 13 13 13 13 13 13 13 13 13 13 13 13 13 13 13 13 13 12 12 12 12 12 12 12 12 12 11 11 12 12 12 12 11
12 12 12 12 12 12 12 12 12 12 12 13 13 14 14 14 14 14 14 14 14 14 14 14 13 13 13 13 13 13 13 13 13 13 13 13 13 13 13 13 13 13 13 13 13 13 13 13 13 13 13 13 12 12 12 12 12 12 12 12 11 11 11 10 10 10 10 10 10
11 11 11 12 12 12 12 12 11 11 11 11 12 13 13 13 13 13 13 13 13 13 13 13 13 13 13 13 13 13 13 13 13 13 13 13 13 13 13 13 13 13 13 13 13 13 13 13 13 13 12 12 12 12 12 12 12 11 11 11 11 10 10 9 9 9 9 9 9
10 10 10 11 11 11 11 11 11 11 11 10 11 11 12 12 13 13 13 13 13 13 13 13 13 13 12 12 12 13 13 13 13 13 13 13 12 12 12 12 12 12 12 12 12 12 12 12 12 12 12 12 12 11 11 11 10 10 10 10 9 9 9 8 8 8 8 8 8
10 10 10 10 10 10 10 10 11 11 11 10 10 10 10 11 11 12 12 12 12 12 12 12 12 12 12 12 12 12 12 12 12 12 12 12 12 11 11 11 11 12 12 12 12 12 12 11 12 12 12 11 11 10 10 10 9 9 8 8 8 8 7 7 7 7 8 8 8
9 10 10 9 9 9 9 9 9 9 9 10 10 10 10 10 10 10 10 11 11 11 11 11 11 11 11 11 11 11 12 12 12 11 11 11 11 11 11 11 11 11 11 11 11 11 10 10 10 10 10 10 10 9 9 9 8 8 7 7 7 7 7 7 7 7 7 7 7
9 9 9 9 9 8 8 8 8 8 8 8 9 9 9 9 9 9 9 9 10 10 10 10 10 10 10 10 10 10 11 11 11 11 11 11 11 11 11 11 11 10 10 10 10 10 10 9 9 9 9 9 9 9 8 8 8 7 7 7 7 7 7 7 7 7 7 7 6
8 8 8 8 8 8 8 8 8 8 8 8 8 8 8 8 8 8 8 8 8 9 9 9 9 9 9 9 9 9 10 10 10 10 10 10 10 10 10 10 10 9 9 9 9 9 9 9 9 8 8 8 8 8 8 8 8 8 8 8 7 7 7 7 7 7 7 6 6
7 7 7 7 7 7 7 7 7 7 7 7 7 7 7 7 7 7 7 8 8 8 8 8 9 8 8 8 8 8 9 9 9 9 9 9 9 9 9 9 8 8 8 8 8 8 8 8 8 8 8 8 8 8 8 8 8 8 8 8 8 7 7 7 7 7 7 7 7
6 6 6 6 6 6 7 7 7 7 7 7 7 7 7 7 7 7 7 7 7 7 8 8 8 8 8 8 8 8 8 8 8 8 8 8 8 8 8 8 7 7 7 8 8 8 8 8 8 8 8 8 8 8 8 8 8 8 7 7 7 7 7 7 7 7 6 6 7
6 6 6 6 6 6 6 6 7 7 7 7 7 7 7 7 7 7 7 7 7 7 7 7 7 7 7 7 7 7 7 7 7 7 7 7 7 7 7 7 7 7 7 7 7 7 8 8 8 8 8 8 8 8 8 8 7 7 7 7 7 7 6 6 6 6 6 6 6
6 6 6 6 6 6 6 6 6 6 6 6 6 6 6 6 6 6 6 6 7 7 7 7 7 6 6 6 7 7 7 7 7 7 7 7 7 7 6 6 6 6 7 7 7 7 7 8 8 8 8 8 8 7 7 7 7 7 6 6 6 6 6 6 6 6 6 6 6
6 6 6 6 6 6 6 6 6 6 6 6 6 6 6 6 6 6 6 6 6 6 6 6 6 6 6 6 6 6 6 6 6 6 6 6 6 6 6 6 6 6 6 7 7 7 7 7 7 7 7 7 7 7 7 7 6 6 6 6 6 5 5 5 5 5 5 5 5
6 6 6 6 6 6 6 6 6 6 6 5 5 5 5 5 5 5 6 6 6 6 6 6 6 6 6 6 6 6 6 6 6 6 6 6 6 6 6 6 6 6 6 6 7 7 7 7 7 7 7 7 6 6 6 6 6 6 5 5 5 5 5 5 5 5 5 5 5
7 7 6 6 6 6 6 6 6 6 5 5 5 5 5 5 5 5 5 6 5 5 5 5 5 5 5 6 6 6 6 6 6 6 6 6 6 6 5 5 5 6 6 6 6 6 6 6 6 6 6 6 6 6 6 6 5 5 5 5 4 4 4 4 4 4 4 4 4
7 7 7 6 6 6 6 6 6 6 6 6 5 5 5 5 5 5 5 5 5 5 5 5 5 5 5 5 6 6 6 6 6 6 6 5 6 6 6 5 5 5 5 6 6 6 6 6 6 6 6 6 6 6 6 5 5 5 4 4 4 4 4 4 4 4 3 3 4
7 7 7 7 7 6 6 6 6 6 6 6 6 6 6 6 5 5 6 6 6 6 5 5 5 5 5 6 6 5 5 5 6 6 5 5 5 6 6 5 5 5 5 5 5 6 6 6 6 6 6 6 6 5 5 5 5 4 4 4 4 3 3 3 3 3 3 3 3
6 7 7 7 7 7 6 6 6 6 6 6 6 6 6 6 6 6 6 6 6 5 5 5 5 5 5 6 6 5 5 5 5 5 5 5 5 6 6 5 5 5 5 5 5 5 5 5 5 5 5 5 5 5 5 5 4 4 4 4 4 3 3 3 3 3 3 3 3
Height
685 687 688 689 690 691 693 694 695 697 699 700 702 704 705 708 710 713 715 717 718 720 722 724 725 728 730 732 734 736 739 741 743 745 747 749 750 751 752 754 755 757 759 760 761 762 764 765 767 768 770 771 772 773 774 775 776 777 779 780 782 783 784 785 786 786 788 789 790
683 685 686 687 689 690 692 693 695 697 698 700 701 703 705 706 709 711 713 715 716 718 721 723 725 728 730 732 734 736 738 740 742 745 746 748 750 751 752 753 755 756 757 758 760 761 762 764 765 767 768 770 771 772 773 774 775 776 777 779 780 782 783 784 785 785 786 788 789
681 683 685 686 688 689 691 692 694 696 697 699 700 702 704 705 707 709 711 712 714 715 718 721 724 727 729 731 733 735 737 740 742 744 746 747 749 750 751 753 754 755 756 757 758 759 760 762 763 765 766 768 769 770 771 773 774 775 776 778 779 780 782 783 784 785 786 787 788
680 682 684 685 686 687 689 691 693 694 696 697 699 701 703 704 705 707 709 710 712 713 715 717 720 724 727 730 732 734 736 739 741 743 745 746 748 749 750 751 752 753 755 755 756 758 759 760 762 763 764 766 767 769 770 771 772 773 775 776 778 780 781 782 783 784 785 786 787
679 680 682 683 685 686 688 690 691 693 695 696 698 700 702 704 705 706 707 709 710 711 713 715 717 720 724 727 730 732 735 738 740 742 743 745 745 747 748 749 750 752 753 754 755 756 758 759 760 762 763 764 766 767 768 769 770 772 773 775 777 779 780 781 783 784 785 785 786
677 679 680 682 683 685 687 689 690 692 694 696 698 700 701 703 704 705 706 707 708 710 712 714 716 719 722 725 727 730 733 736 738 740 741 742 744 745 746 748 749 750 751 753 754 755 756 758 759 760 762 763 765 765 767 768 769 770 772 774 776 778 779 780 782 783 784 785 785
675 678 680 681 682 684 686 688 690 692 694 695 697 698 700 701 703 704 705 706 708 710 712 714 716 718 720 723 725 728 731 734 736 737 739 740 742 743 745 746 748 749 750 752 753 754 755 756 758 759 760 762 763 764 765 766 767 768 770 772 775 776 778 780 781 782 783 784 785
675 677 678 680 681 684 685 687 690 691 693 695 696 698 699 700 702 703 704 706 707 709 711 713 715 717 719 721 724 727 729 731 734 735 737 738 740 742 743 745 746 748 750 751 752 753 754 755 756 757 759 760 761 762 763 764 765 767 769 771 773 775 777 778 780 780 781 782 783
674 676 677 679 681 683 685 687 689 690 693 694 696 697 698 700 701 703 704 705 707 709 710 713 714 716 718 720 723 725 728 730 732 734 735 737 739 740 742 744 745 747 749 750 751 752 753 755 755 756 758 759 760 761 762 763 764 765 767 769 771 774 775 777 778 779 780 781 782
672 675 676 678 680 682 684 686 688 690 692 694 695 697 698 700 701 702 704 705 707 709 711 712 714 716 718 720 723 725 727 729 730 732 734 736 737 739 740 742 744 746 748 749 750 752 753 754 755 756 757 758 759 760 761 761 763 764 766 768 770 772 774 776 777 778 779 780 781
671 673 675 677 680 681 684 686 689 690 692 694 695 696 698 700 701 703 704 706 708 710 711 712 714 715 718 720 722 724 726 728 730 731 733 735 736 738 739 741 743 745 746 748 750 751 753 754 755 756 757 758 759 759 760 760 762 763 765 767 769 771 773 774 775 776 777 779 780
671 673 675 677 679 681 684 686 689 690 692 693 695 696 698 700 701 703 705 706 708 709 710 712 713 715 717 719 721 724 725 727 729 730 732 734 735 737 738 740 742 743 745 747 749 750 752 754 755 756 757 758 759 759 759 760 760 762 764 765 767 770 771 773 774 775 776 777 779
672 674 676 678 680 682 684 686 689 690 692 693 694 696 698 700 701 703 704 706 707 709 710 712 713 714 716 718 720 722 724 726 728 730 731 733 734 736 738 740 741 742 744 745 747 749 751 753 754 756 757 758 759 759 759 759 759 761 762 765 766 768 770 772 773 774 775 776 777
672 674 676 679 680 683 685 687 689 690 691 692 694 695 697 699 701 703 704 705 707 708 710 711 712 714 715 717 719 721 723 725 726 728 730 732 733 735 737 738 740 741 743 745 746 748 750 751 753 755 756 757 759 759 759 758 758 760 761 764 765 767 769 771 772 774 775 775 776
672 675 677 679 681 683 685 687 689 690 691 692 694 695 697 699 701 702 704 705 706 707 708 710 711 713 715 716 718 720 721 724 726 728 730 731 733 734 735 737 739 740 742 744 745 747 749 750 752 754 756 757 758 759 758 758 758 759 760 763 765 767 769 770 771 773 774 775 775
672 675 677 679 681 683 685 687 688 690 691 692 694 695 697 699 701 702 703 704 705 707 708 709 711 713 715 717 718 720 721 724 726 728 730 731 732 733 735 736 738 740 741 743 745 746 747 749 750 753 755 757 758 758 757 756 756 758 760 762 765 767 768 770 771 772 773 774 775
673 675 677 679 681 683 685 686 688 689 691 692 694 695 697 699 700 701 702 704 705 707 708 710 711 713 715 717 718 720 723 725 727 729 730 731 732 733 734 735 737 739 741 743 745 746 747 748 750 752 755 756 757 757 756 755 755 757 759 762 765 766 768 769 770 772 773 774 775
673 675 677 678 680 682 684 686 687 689 690 692 694 696 697 699 699 700 702 703 705 707 708 710 712 713 715 717 719 721 723 725 727 728 729 730 732 733 734 735 737 739 740 743 745 746 747 748 750 752 754 756 756 755 755 754 754 756 759 761 764 765 767 768 769 771 772 774 774
673 675 676 677 679 681 684 686 687 688 690 692 694 697 698 699 700 701 702 704 705 706 708 710 712 714 716 717 719 721 722 724 725 726 728 729 731 733 734 736 737 739 741 743 744 745 746 747 749 751 753 754 755 754 754 753 754 756 758 760 762 764 765 767 768 770 771 772 773
674 675 676 678 680 682 684 685 686 688 690 692 695 698 700 700 701 702 704 705 706 708 709 711 714 715 717 718 719 720 722 723 724 725 727 729 731 732 734 736 738 740 741 742 743 744 745 747 749 750 751 752 753 753 753 754 755 756 758 760 761 763 764 765 767 768 770 771 772
675 676 677 679 680 682 684 685 686 688 690 694 696 699 700 701 703 704 705 706 707 708 710 711 714 715 717 719 720 721 722 723 725 725 727 729 730 732 734 736 738 740 740 740 742 743 745 746 748 749 750 750 751 752 752 754 755 756 758 759 760 761 763 764 766 767 769 770 770
675 677 678 679 681 683 685 686 687 690 692 695 697 698 700 701 703 704 705 706 708 709 710 711 713 715 716 717 719 720 721 723 725 726 727 729 731 733 735 736 738 739 739 740 741 743 744 745 746 747 748 749 750 751 752 753 755 756 757 758 759 760 762 763 765 766 768 769 770
677 678 680 681 682 684 685 687 689 691 693 695 696 698 700 701 702 704 705 706 708 709 710 711 713 714 715 716 717 719 720 722 724 725 727 729 731 733 735 736 737 738 739 740 741 742 743 744 745 745 746 748 749 750 751 752 754 755 756 757 758 759 760 762 764 765 766 767 769
679 680 681 683 684 685 686 688 690 692 693 695 696 697 699 700 702 703 704 706 707 709 710 712 713 714 715 716 717 718 720 721 723 725 727 728 730 732 733 735 736 737 738 739 740 740 741 742 743 744 745 747 748 749 750 751 753 754 755 756 757 759 760 761 763 764 765 765 766
682 683 684 685 687 688 689 690 691 692 693 695 696 697 699 700 701 702 704 705 707 708 710 711 713 714 715 716 717 718 720 721 722 724 725 727 729 730 731 733 734 735 736 737 738 739 740 741 742 743 744 745 747 748 749 750 751 753 754 755 756 758 759 761 762 762 763 764 765
685 686 688 689 690 691 692 693 693 694 694 695 696 698 699 700 701 702 703 705 706 708 709 711 712 714 715 716 717 718 719 720 722 723 725 726 727 729 730 731 732 733 734 735 736 738 739 740 741 742 743 744 745 747 748 749 750 752 753 755 756 757 758 760 760 761 762 763 763
689 690 691 692 692 693 694 695 696 696 697 697 698 698 699 700 701 702 703 705 706 707 709 710 712 713 715 716 717 718 719 720 721 723 724 725 726 727 729 730 731 732 733 734 735 736 738 739 740 741 742 743 744 745 747 748 750 751 752 754 755 756 757 758 759 760 761 762 763
692 693 693 694 695 695 696 697 698 699 700 700 700 700 700 700 701 702 703 705 706 707 708 709 711 713 714 716 717 718 718 720 721 722 724 725 726 727 728 729 730 731 732 733 734 735 737 738 739 740 741 742 743 744 745 747 748 750 751 753 755 756 757 758 759 759 760 761 762
695 695 696 696 697 698 699 700 700 701 702 702 703 703 703 703 703 703 704 705 705 706 708 709 710 712 714 715 716 717 718 719 720 722 723 725 726 727 728 728 730 730 732 733 734 735 735 736 737 739 740 740 741 743 744 746 747 749 751 753 754 755 757 758 759 760 760 761 762
698 699 699 700 700 701 701 702 703 703 704 704 705 705 705 705 705 705 705 705 706 707 708 709 710 712 714 715 716 717 718 719 720 722 723 724 725 726 727 729 730 730 731 732 733 734 735 735 737 738 739 740 741 742 744 745 747 749 751 753 755 756 757 758 759 760 760 761 761
701 702 702 702 703 703 704 705 705 705 706 706 706 707 707 707 707 707 707 708 708 709 709 710 711 713 714 715 716 717 718 719 720 722 723 724 725 726 727 728 729 730 731 732 733 733 734 735 736 737 739 740 740 742 743 745 747 749 751 753 755 756 757 758 759 760 761 761 761
705 705 705 705 705 706 706 707 707 707 708 708 709 709 709 709 709 709 709 710 710 710 711 712 713 714 715 716 717 718 719 720 720 721 722 723 724 725 726 728 729 730 731 732 732 733 734 735 736 737 738 740 740 742 744 745 748 750 751 753 755 756 757 758 759 760 761 761 761
708 708 708 709 709 709 709 709 710 710 710 710 710 711 711 711 711 711 711 711 711 712 712 713 714 715 715 716 717 718 719 720 721 722 723 723 724 725 726 728 729 730 731 732 732 733 734 735 736 737 738 740 741 742 744 746 748 750 751 753 755 756 757 758 759 760 761 761 762
711 711 711 712 712 712 712 712 712 712 712 712 713 713 713 713 713 713 713 713 713 713 714 715 715 716 717 717 718 719 720 721 722 723 724 724 725 726 727 729 730 731 732 732 733 734 734 735 736 737 739 740 741 743 745 746 748 750 751 753 755 756 757 759 760 760 761 762 762
714 714 714 715 715 715 715 715 715 714 714 714 715 715 715 715 715 715 715 715 715 715 715 716 717 718 718 719 720 721 722 722 723 724 725 726 727 727 729 730 731 732 733 733 733 734 735 736 737 738 739 740 742 743 745 746 748 750 752 754 755 757 758 759 760 761 762 762 763
717 716 716 716 716 717 717 717 716 716 716 716 717 717 717 717 717 717 717 717 717 717 718 718 719 720 720 721 722 723 724 724 725 726 727 728 728 729 730 731 732 733 734 734 734 735 735 736 737 738 739 740 742 744 745 747 749 750 752 754 755 757 758 760 760 761 762 763 764
719 719 718 718 718 718 718 718 718 718 718 719 719 719 719 719 719 720 720 719 719 719 720 720 721 722 722 723 724 725 726 726 727 728 729 729 730 730 730 732 733 734 734 735 735 736 736 737 738 739 740 741 742 744 745 747 749 751 753 754 756 757 759 760 760 761 762 763 764
721 720 720 720 719 720 720 720 720 720 720 720 721 721 721 721 721 721 721 721 721 721 722 723 723 724 724 725 725 726 727 728 729 729 730 730 730 730 731 732 733 734 735 735 736 737 737 738 739 739 740 741 743 744 746 747 749 751 753 754 755 757 758 760 760 761 762 763 764
723 722 721 721 721 721 721 721 721 721 722 722 722 723 723 722 723 723 723 723 723 723 724 725 725 725 726 726 727 728 729 730 730 730 730 731 731 731 731 732 734 735 736 737 737 738 738 739 740 740 741 742 743 745 746 748 749 751 752 754 755 757 758 759 760 761 762 763 764
725 724 723 722 722 722 722 722 722 723 723 723 724 724 724 724 724 725 725 725 725 725 726 726 726 727 727 728 728 729 730 730 731 731 732 732 732 732 732 733 735 736 737 738 738 739 739 740 741 742 743 744 745 745 746 748 749 750 752 754 755 756 758 759 760 761 762 763 764
726 726 725 725 724 724 724 724 724 725 725 725 725 725 725 725 726 726 726 727 727 727 727 727 727 728 728 729 729 730 730 731 732 733 733 733 733 733 733 734 735 737 738 739 739 740 740 741 742 743 744 745 745 746 747 748 749 750 752 753 755 756 757 759 760 761 761 762 763
Wind_Speed
32 31 30 29 31 30 29 29 29 29 28 28 28 28 28 28 28 28 28 30 30 30 29 30 31 32 33 35 37 39 38 36 35 37 38 38 37 37 37 37 37 37 36 35 34 34 34 34 35 35 35 35 35 34 34 33 32 31 30 30 29 29 29 30 30 30 29 27 26
32 31 30 30 32 31 30 29 30 30 30 31 31 30 31 31 32 32 32 34 35 35 34 33 33 32 32 34 37 39 39 37 36 37 39 39 39 39 38 38 38 38 37 36 35 35 35 36 36 36 35 35 35 34 33 33 32 31 30 30 29 29 29 29 29 29 28 27 26
33 32 31 31 32 32 31 30 30 30 31 32 32 33 33 34 35 35 35 36 37 38 38 37 36 35 34 35 37 39 39 38 38 38 38 39 40 40 39 39 39 39 38 37 36 36 36 37 37 37 36 36 35 35 34 33 32 31 31 30 30 29 29 29 29 28 27 27 26
33 32 31 32 33 33 32 32 31 31 31 32 32 32 33 33 35 36 36 37 37 38 39 39 40 39 39 39 39 40 39 39 38 38 39 40 40 40 40 40 40 40 39 38 37 37 37 37 38 37 37 37 36 36 35 33 33 32 31 31 31 30 30 29 29 28 28 27 27
34 33 32 33 34 35 34 34 33 32 31 31 30 30 31 31 32 34 35 35 36 37 38 40 41 41 42 42 41 41 40 39 39 39 39 40 40 40 40 40 40 40 39 39 38 38 38 38 38 38 38 38 37 36 36 35 34 33 32 31 31 30 30 29 29 28 28 28 27
33 33 33 33 35 35 34 33 33 31 30 30 29 29 29 29 30 31 32 33 34 36 37 38 39 40 41 41 41 41 40 39 39 39 39 39 39 39 39 39 39 39 39 39 38 38 38 38 38 38 38 38 37 37 37 36 35 34 32 32 31 31 30 30 29 28 28 28 27
33 33 32 32 34 34 33 33 32 31 30 29 29 29 29 29 29 30 31 32 33 34 35 36 37 38 39 39 39 40 40 40 39 39 39 39 38 38 38 38 38 38 38 38 38 38 38 39 38 38 38 38 37 37 37 37 36 34 33 32 31 31 30 30 29 29 28 28 27
34 33 32 32 34 34 33 32 32 31 30 30 30 30 30 30 30 30 30 31 31 32 34 35 36 37 38 38 38 39 39 39 38 38 38 38 38 38 37 37 37 37 37 38 38 39 39 39 39 38 38 38 37 37 36 36 36 34 33 32 31 30 30 30 29 29 28 28 27
32 32 32 33 34 33 33 33 33 32 32 31 31 31 32 32 31 31 30 30 31 33 34 34 35 36 37 38 38 38 38 38 38 37 37 38 37 37 37 36 36 36 37 37 38 39 39 39 38 38 38 37 36 36 35 35 34 34 33 33 32 30 29 29 28 28 27 27 27
30 31 31 32 33 33 33 33 33 33 33 32 32 32 33 33 33 32 32 32 33 33 34 35 36 37 37 38 38 38 38 38 38 37 37 37 38 37 37 36 36 36 36 37 37 37 37 36 36 36 36 36 35 34 33 33 32 32 32 32 31 30 29 28 28 27 27 26 26
29 30 31 32 33 33 33 32 32 32 33 32 32 33 33 34 34 34 34 34 34 34 35 36 37 38 38 38 38 38 38 38 38 38 38 38 38 38 38 37 37 37 36 36 35 34 33 32 33 33 32 32 32 31 30 30 30 30 30 30 30 29 28 27 27 26 26 26 27
30 30 31 31 33 33 33 32 31 31 32 32 32 33 33 33 34 34 35 35 35 35 36 38 39 39 39 39 38 39 39 39 39 39 39 39 39 39 38 37 37 36 36 35 34 32 30 29 29 29 28 27 27 27 26 26 25 25 26 26 27 27 27 26 26 26 26 27 27
31 31 31 32 33 34 33 31 30 30 31 32 33 33 33 33 34 34 35 35 35 36 37 38 39 40 40 39 39 40 40 40 41 41 41 41 40 39 37 36 35 35 34 33 32 31 29 28 27 26 25 24 23 23 22 21 20 20 21 22 23 24 25 25 25 26 27 27 27
32 32 32 34 34 34 32 30 28 28 30 33 33 34 34 33 34 35 36 36 36 36 37 38 39 39 40 40 40 41 41 41 41 41 41 40 39 37 35 33 33 33 32 32 31 30 30 28 26 25 24 22 21 21 20 18 17 16 17 18 20 21 23 24 25 26 26 27 26
33 33 33 35 34 33 31 30 29 28 29 31 33 34 34 33 33 34 36 36 36 35 36 37 37 38 38 39 41 41 41 40 38 37 37 36 35 34 32 31 31 32 32 32 31 31 30 29 27 25 24 22 21 20 19 17 15 14 14 15 17 19 21 22 24 25 25 25 25
32 31 32 32 32 31 30 29 29 29 28 28 29 30 30 30 30 31 32 33 32 31 31 33 34 35 35 36 38 38 35 33 31 31 32 32 32 32 32 31 32 33 33 34 33 31 30 29 27 25 24 24 23 21 19 17 15 14 13 13 15 16 18 20 22 23 23 23 23
28 28 28 30 31 30 28 27 27 28 28 27 27 27 27 26 26 27 27 27 26 25 26 27 29 30 30 30 32 31 29 27 27 28 29 30 30 31 32 33 34 35 35 34 33 31 30 29 27 25 25 25 24 22 20 17 16 14 13 13 14 16 17 19 20 21 21 22 22
24 24 25 27 29 29 27 25 25 26 27 26 25 25 25 25 25 24 24 23 23 23 23 23 25 26 27 27 27 27 27 26 26 27 28 29 29 30 32 34 35 35 34 33 31 30 29 28 27 26 26 25 24 22 20 18 16 15 15 15 15 15 16 18 19 21 23 24 23
22 22 23 25 27 27 26 25 25 25 26 25 25 24 25 25 25 25 24 23 23 23 22 22 23 25 26 27 27 27 27 27 26 26 27 27 27 28 30 32 33 32 31 30 29 28 28 27 27 27 26 25 24 22 20 18 17 16 16 16 15 15 16 16 18 20 22 24 25
21 21 22 23 25 26 26 24 24 25 26 26 26 25 25 26 27 27 27 26 26 25 24 24 25 26 27 28 28 28 27 27 26 26 26 27 27 28 29 31 31 31 30 29 28 28 27 27 27 26 25 24 23 21 20 19 18 17 17 17 16 16 16 16 17 18 20 22 24
18 18 19 21 23 24 24 24 24 24 25 26 26 26 26 26 27 28 28 28 29 29 28 28 28 29 29 29 29 28 28 27 27 27 28 28 28 28 29 31 31 30 29 28 28 27 27 26 25 25 24 23 21 20 19 19 19 18 18 17 17 17 17 17 18 18 20 22 24
16 17 17 18 20 22 23 24 24 24 25 26 26 25 25 25 25 25 26 26 27 28 29 30 30 29 30 30 30 30 29 29 29 29 30 30 30 30 30 30 31 31 30 28 27 27 26 25 24 24 23 22 21 20 20 19 19 19 18 18 18 19 20 20 22 23 24 24 25
18 17 17 17 18 20 22 23 25 25 26 26 26 25 25 24 24 24 24 24 24 25 27 28 29 29 29 30 30 31 31 31 31 31 32 32 31 30 30 30 31 31 31 30 29 29 28 27 26 25 24 24 23 22 21 21 21 20 20 20 20 21 23 24 26 28 28 28 28
18 16 15 15 15 17 19 21 22 24 24 25 25 26 25 25 25 25 25 25 25 25 26 26 27 27 28 29 30 31 31 31 31 31 32 32 31 31 31 31 32 32 33 33 33 33 32 31 30 29 27 26 25 24 23 23 22 22 22 22 22 23 24 26 27 29 29 29 29
17 14 13 11 11 12 13 15 17 19 20 21 24 25 25 25 25 25 25 25 25 25 25 25 25 26 26 27 28 30 30 31 30 30 30 31 31 31 32 32 33 33 34 34 35 34 34 33 32 31 29 27 26 24 24 24 24 24 24 24 24 25 25 26 27 28 29 29 28
20 17 15 13 11 11 11 11 12 13 15 17 20 21 23 23 23 23 23 23 23 23 23 23 23 23 24 25 26 27 28 28 29 29 29 30 30 31 31 31 31 32 32 33 33 32 32 31 31 30 29 27 26 25 24 24 24 24 25 25 26 27 27 27 27 27 27 26 26
22 21 19 17 16 15 13 12 11 11 11 13 15 17 19 20 21 22 22 22 22 21 21 20 20 20 20 22 23 24 25 26 27 28 29 29 29 29 29 29 29 29 29 29 29 29 29 29 29 29 28 26 26 25 25 25 25 25 25 26 26 27 28 27 27 26 25 24 23
20 20 19 19 18 17 16 14 13 11 10 10 11 13 15 17 18 20 20 20 20 20 19 19 19 20 20 20 22 24 25 26 26 27 27 27 27 27 26 26 26 26 26 26 26 26 26 26 26 26 26 25 25 25 25 25 25 25 26 26 26 26 27 27 26 25 24 23 22
18 17 17 17 18 17 16 15 15 14 12 11 11 11 12 13 15 16 17 18 18 18 18 18 19 20 20 20 22 24 25 26 26 26 26 26 25 24 24 24 24 24 24 24 23 23 23 24 23 23 23 24 24 24 24 25 25 26 26 26 26 25 25 25 24 24 23 22 21
17 17 16 16 16 16 16 15 15 14 14 13 13 13 13 13 13 14 15 16 16 17 17 18 18 18 19 19 21 22 23 24 24 24 24 24 23 22 22 22 22 21 21 22 22 22 22 21 21 21 22 23 23 24 24 24 25 26 25 25 24 24 23 22 22 21 21 21 21
19 18 17 17 17 16 16 15 14 14 13 13 13 13 14 14 14 14 14 14 15 15 16 16 16 17 17 18 19 20 21 21 21 21 21 21 22 21 21 21 20 20 20 21 21 21 21 21 21 21 21 22 23 23 24 24 25 24 24 23 22 21 20 19 19 19 19 19 19
20 19 19 18 18 17 16 15 14 13 13 13 13 13 13 13 13 13 13 13 14 14 14 14 15 15 15 16 16 17 18 19 19 19 19 20 21 21 21 20 20 21 21 21 21 21 21 21 21 21 21 22 22 23 24 24 23 22 21 20 19 18 18 18 18 18 18 18 18
20 20 19 19 18 17 16 15 14 13 13 13 13 13 13 13 13 12 12 12 12 13 13 13 13 14 14 14 15 15 16 17 18 18 19 20 21 21 22 22 21 21 21 21 21 21 21 21 21 21 21 22 22 22 22 22 21 20 19 18 17 17 17 17 17 17 17 17 17
20 19 19 19 18 17 16 15 14 14 14 14 14 13 13 13 12 12 12 11 12 12 12 12 13 13 13 14 15 16 16 17 17 18 19 20 21 22 23 22 22 21 21 21 21 21 21 21 21 21 21 21 21 21 20 20 19 18 18 17 17 16 16 16 16 16 16 16 17
18 18 18 17 17 17 16 16 15 15 15 15 15 14 13 13 13 12 12 11 11 12 12 12 13 13 14 14 15 16 17 17 18 19 20 21 22 23 23 23 22 22 21 21 21 21 21 21 21 20 20 20 19 19 18 18 18 17 17 17 16 16 16 15 15 15 15 15 15
16 16 16 16 16 16 16 16 16 16 16 16 15 15 14 14 13 12 12 12 12 13 13 13 13 14 15 15 16 16 17 18 19 20 20 21 22 23 23 22 22 21 20 20 20 20 20 20 19 19 19 19 18 18 17 17 17 17 16 16 16 16 15 15 15 14 14 13 13
15 15 15 15 15 15 15 15 15 16 16 15 15 15 15 14 13 12 12 12 13 14 14 14 14 15 16 16 17 17 18 19 20 20 21 21 22 22 23 22 20 19 18 18 18 18 18 18 18 18 18 18 18 17 17 17 16 16 16 16 16 15 15 14 14 13 13 12 13
14 14 14 14 14 14 14 14 14 15 15 14 14 14 14 13 13 12 12 12 14 15 15 15 15 16 16 17 17 18 18 19 19 20 20 20 21 22 22 20 18 17 15 15 15 15 16 16 16 16 16 17 17 17 17 17 17 17 17 16 16 15 14 14 13 13 13 13 13
15 14 14 13 13 13 13 13 13 13 13 13 13 13 13 13 13 12 12 12 13 14 15 15 15 15 16 16 17 18 18 18 18 19 19 20 20 20 20 19 17 15 13 13 13 13 13 14 14 14 14 15 16 17 17 18 18 18 17 17 16 16 15 14 14 14 14 14 14
15 14 14 13 13 12 12 12 12 12 12 12 12 12 12 12 11 11 11 11 12 13 14 14 15 14 14 15 16 16 17 17 17 17 18 18 18 18 18 17 16 14 12 11 11 11 12 12 12 12 13 14 16 17 18 19 19 19 18 18 18 17 16 15 14 14 15 15 15
14 14 14 14 13 12 11 11 10 10 10 10 10 10 10 10 9 9 9 10 11 12 13 13 14 13 13 13 14 15 16 16 16 16 17 17 17 16 16 16 15 14 12 11 10 10 10 11 11 11 12 14 15 17 18 19 20 20 20 19 19 18 17 17 16 15 15 16 16
Wind_Direction
188 187 185 183 181 180 179 179 181 182 181 178 175 173 172 172 172 173 174 175 175 175 175 173 173 174 177 182 185 188 189 191 193 196 198 200 201 200 199 198 197 196 195 195 195 195 195 195 195 194 194 193 193 193 193 194 192 192 192 193 195 196 198 198 199 200 200 201 201
188 187 185 183 181 181 181 182 183 185 186 185 183 180 178 178 177 177 177 177 177 178 178 178 177 176 177 179 183 186 187 189 191 194 197 198 200 200 200 198 198 197 196 195 195 194 193 193 193 193 192 192 192 191 191 191 190 190 190 191 193 193 193 194 195 196 196 197 197
188 187 185 183 182 183 183 185 186 187 188 188 187 185 183 182 181 180 180 180 180 180 180 181 182 181 181 181 183 185 187 189 191 193 195 196 198 199 199 199 199 198 198 197 196 194 193 193 192 192 191 190 190 189 188 188 189 189 189 190 190 190 189 190 191 192 192 193 193
187 186 185 184 184 184 186 187 188 189 190 189 189 187 186 185 184 183 183 183 182 182 183 183 184 185 185 185 186 187 188 189 191 192 193 195 196 198 199 199 199 199 199 198 197 195 193 192 192 191 190 189 189 188 187 187 188 189 189 190 189 188 187 188 189 189 189 190 190
186 186 186 186 186 186 188 189 190 190 190 190 189 189 188 188 187 185 184 183 183 184 185 185 185 185 186 186 186 187 188 190 191 192 193 193 195 196 198 199 199 199 199 198 197 195 193 192 190 190 189 189 188 188 188 189 188 188 189 189 188 188 188 188 188 188 189 188 189
183 185 186 186 186 187 188 189 190 190 190 189 189 189 189 188 187 186 184 183 184 185 185 185 184 184 184 184 185 185 187 189 191 192 192 192 193 194 196 197 197 197 197 196 195 194 192 190 189 188 188 188 188 189 190 191 190 189 188 187 188 189 190 190 190 190 190 190 189
180 182 183 184 184 185 186 188 189 189 188 188 188 187 187 187 186 185 183 183 183 183 183 183 182 181 181 181 182 184 186 188 190 191 190 190 190 191 192 192 193 193 192 192 191 190 189 189 187 186 186 186 187 188 190 191 191 189 188 187 189 191 192 193 194 194 193 193 193
177 178 179 179 180 181 183 185 185 186 186 186 186 187 186 185 184 183 182 181 181 181 182 182 181 180 180 180 181 183 185 186 187 188 188 188 187 187 187 187 187 187 187 187 186 186 186 186 186 185 184 185 185 187 189 190 191 190 190 189 191 193 194 195 196 196 196 197 197
175 174 174 174 175 177 179 181 182 183 183 184 185 186 186 185 184 182 181 180 181 182 182 182 182 181 181 181 182 183 184 185 185 185 185 184 183 182 181 181 181 181 182 182 182 182 183 183 183 184 184 185 184 185 187 188 189 190 191 191 192 193 195 197 198 198 198 199 200
172 170 169 168 170 171 173 176 179 181 182 182 183 184 185 185 184 182 181 182 183 183 183 183 182 181 181 181 182 183 183 183 182 181 181 180 179 177 177 177 177 178 178 179 179 180 180 180 181 181 183 184 184 184 185 187 187 189 191 192 193 194 196 198 199 200 200 201 203
171 169 167 166 166 166 168 170 174 177 179 179 179 180 181 181 181 180 181 182 182 181 182 182 182 181 180 180 181 181 181 180 179 178 177 176 175 175 174 175 175 176 177 177 178 178 178 178 179 179 181 183 184 184 184 186 187 189 191 194 196 197 199 201 202 203 203 204 205
173 173 171 169 167 165 164 164 167 171 174 174 175 175 176 177 177 177 177 177 176 177 179 180 179 179 178 178 179 179 179 178 177 176 174 173 173 172 173 173 174 175 176 176 177 178 177 177 178 179 180 183 185 185 184 184 185 188 192 195 198 200 202 203 204 205 205 204 203
177 177 176 175 172 169 167 166 165 165 167 168 169 170 171 172 174 174 173 172 172 172 174 175 176 176 176 176 176 176 176 176 175 174 173 172 171 171 172 173 174 175 176 176 178 178 178 178 179 180 181 183 186 187 185 181 181 183 188 193 197 200 202 203 204 204 203 201 199
178 179 180 180 178 177 178 180 176 169 163 162 163 164 164 165 167 169 169 169 169 169 169 170 171 172 173 174 175 175 175 175 174 173 172 172 172 173 173 175 177 178 179 180 181 182 182 183 184 185 185 186 187 188 188 184 179 179 183 189 194 197 199 200 201 200 199 197 195
178 180 182 184 183 184 188 191 189 180 169 161 160 160 161 160 162 165 166 166 167 167 167 167 168 169 171 173 174 175 175 175 175 176 176 176 176 177 178 180 182 183 184 185 185 186 186 187 188 189 190 190 189 189 188 185 179 178 183 188 193 196 197 198 198 197 195 194 194
177 180 184 186 187 186 187 188 188 184 178 171 165 164 165 164 164 165 166 166 167 168 168 167 168 169 170 171 173 174 175 176 178 181 182 181 181 182 184 185 186 186 186 186 186 186 186 185 185 186 189 192 191 189 186 181 177 177 184 191 197 199 200 200 200 199 199 199 199
176 178 180 180 180 178 178 180 180 181 181 178 174 173 173 174 172 171 170 170 170 170 171 171 172 172 173 173 174 175 176 179 181 182 182 183 184 186 187 187 186 186 185 186 187 187 185 184 183 183 187 192 193 190 183 175 173 176 183 193 201 206 208 209 210 211 212 212 211
170 169 167 167 168 169 171 172 173 174 176 176 175 176 178 178 177 175 174 173 171 170 171 173 175 176 177 177 178 180 183 185 185 182 181 183 186 188 188 187 186 185 186 188 189 187 184 182 184 187 190 192 192 189 184 176 175 178 184 193 201 208 213 217 220 221 223 223 221
162 160 158 158 160 163 166 167 166 166 167 169 171 175 177 178 178 177 176 175 173 171 170 172 177 180 181 181 182 185 189 191 189 187 186 188 191 192 192 191 191 190 190 190 188 185 182 183 187 190 192 191 191 189 186 182 180 183 188 194 200 206 213 218 222 224 225 224 223
156 155 153 154 157 161 164 163 161 160 162 166 172 175 176 176 176 176 177 177 177 176 175 175 179 183 185 186 187 190 193 195 194 193 193 195 198 199 198 198 196 195 193 189 186 185 186 188 190 191 190 189 189 188 187 186 186 188 192 196 201 205 209 214 218 220 221 220 219
150 149 148 150 155 160 162 162 160 159 163 170 176 179 178 177 176 176 176 177 179 180 180 180 181 182 185 187 190 193 196 197 197 198 199 201 203 204 202 200 199 196 193 190 188 189 190 191 191 190 189 189 188 188 188 189 191 194 197 201 204 207 210 213 215 216 216 215 213
125 131 135 139 146 153 159 162 163 164 168 175 180 182 182 181 180 181 181 180 180 181 181 182 183 183 184 186 190 193 196 197 199 200 202 204 205 205 204 203 202 200 198 196 195 194 194 195 194 194 193 192 192 193 194 195 197 200 204 207 211 214 217 221 223 223 221 218 214
110 119 124 127 134 141 148 156 162 166 171 175 179 181 182 182 183 184 185 185 183 182 182 183 184 185 187 188 190 193 196 198 200 202 203 204 204 203 203 204 204 205 205 205 204 204 204 204 203 203 202 200 200 201 203 205 208 210 212 215 218 220 222 223 224 224 222 219 214
102 109 115 120 127 131 136 142 150 157 164 170 175 178 180 181 182 182 183 184 184 183 183 183 185 187 189 191 193 195 197 199 200 201 202 202 202 200 200 201 202 204 205 206 208 209 209 209 209 208 207 206 206 208 211 214 217 218 220 220 219 218 216 215 215 215 214 211 207
94 101 109 119 131 135 134 134 137 142 150 160 171 176 178 179 180 180 181 181 182 183 184 184 186 187 189 191 193 195 197 198 199 200 201 202 201 200 199 200 201 202 203 204 206 208 209 209 208 207 206 207 208 211 214 217 220 222 222 220 216 211 206 202 200 201 201 200 197
93 97 103 113 125 133 137 137 135 134 139 148 161 170 176 179 183 186 188 187 186 185 184 184 185 187 188 189 191 193 195 197 198 200 200 201 201 201 200 199 199 200 201 203 205 207 209 209 209 208 208 208 209 210 211 212 214 215 215 212 208 203 197 191 187 186 186 186 185
92 95 99 104 109 113 118 127 133 134 135 141 147 155 165 174 181 188 193 196 196 194 190 190 192 194 195 194 194 195 196 198 199 200 200 200 199 198 198 197 197 197 200 203 206 208 209 210 211 212 213 211 209 206 203 201 201 200 198 196 194 191 187 181 177 175 174 174 174
87 90 94 97 99 101 106 113 120 125 130 137 140 144 150 159 168 175 181 187 191 193 193 194 200 205 205 203 202 201 201 200 201 200 199 199 198 194 193 194 195 198 201 204 205 205 204 205 206 208 208 206 202 199 195 192 189 186 183 181 179 177 175 172 170 168 167 167 166
84 88 90 91 92 94 99 102 106 112 119 126 131 135 140 143 146 152 160 167 174 178 182 186 193 198 199 197 198 200 201 202 200 198 197 195 193 192 192 194 196 199 201 200 197 195 195 195 196 196 195 194 191 188 186 183 180 177 174 173 171 169 168 166 165 164 164 163 162
83 87 89 89 90 91 93 95 98 103 108 113 118 122 125 128 129 132 137 145 153 161 168 174 177 179 179 182 185 188 190 191 192 192 192 191 191 192 193 194 193 192 191 190 188 186 185 185 184 184 183 184 183 181 178 177 175 172 171 170 170 169 168 166 165 164 163 162 160
80 84 87 88 88 88 90 93 97 100 104 107 109 112 113 114 116 119 125 132 139 149 158 164 164 165 168 172 174 176 178 180 181 182 184 184 185 186 186 185 181 180 180 180 178 177 176 175 175 176 177 179 178 176 173 172 171 170 169 169 169 170 170 169 168 166 164 162 159
74 78 81 82 83 85 88 92 95 98 101 103 104 104 105 106 110 115 120 127 132 139 146 151 154 157 160 162 165 166 168 169 170 171 173 174 173 172 171 169 167 167 169 170 169 168 168 169 170 171 173 174 173 170 168 167 167 167 167 168 168 169 169 169 168 167 166 164 162
69 73 75 77 79 82 85 89 92 95 97 98 98 98 99 102 107 111 115 120 124 128 132 137 142 145 148 151 153 155 156 157 158 160 161 161 160 157 155 153 154 157 160 162 162 162 163 164 166 167 167 167 166 164 163 163 162 162 163 164 165 167 167 168 168 168 168 168 167
69 71 73 75 77 80 84 87 90 92 94 94 94 95 97 100 103 105 109 115 120 124 127 130 133 137 141 145 146 146 146 148 148 149 149 150 149 147 144 143 146 150 154 156 157 158 159 160 160 160 159 159 158 157 157 157 157 158 159 161 163 165 167 168 169 170 170 171 171
69 72 73 75 78 80 83 86 88 91 92 92 93 95 97 99 101 103 108 116 121 125 126 129 133 135 137 140 143 143 142 141 141 142 142 143 142 140 138 138 141 147 151 152 153 153 154 154 153 151 150 150 150 150 151 152 153 155 157 159 162 164 166 168 169 170 171 172 172
71 73 75 76 78 80 82 85 87 88 89 89 91 94 97 99 101 105 111 118 122 122 122 125 129 131 132 134 137 138 138 138 138 138 139 139 138 136 135 135 139 143 147 148 149 149 148 147 146 145 145 145 145 147 149 150 152 154 156 158 160 162 164 166 168 169 170 171 172
70 73 76 77 78 80 82 85 85 85 85 87 90 93 96 99 102 106 113 118 118 118 118 121 124 126 129 131 132 134 136 137 137 137 137 137 137 135 133 134 137 140 143 145 145 145 144 143 144 144 145 146 147 149 151 153 155 156 157 158 159 161 163 165 166 168 170 171 172
65 70 74 78 80 82 85 86 86 86 87 89 92 96 99 102 103 107 113 117 117 117 118 121 122 125 129 133 133 134 135 136 137 136 135 136 136 136 134 133 135 138 141 142 142 142 142 142 144 147 149 150 152 154 157 158 159 160 160 160 160 161 163 166 168 170 172 174 174
59 63 68 74 79 83 86 88 89 91 94 97 100 101 103 104 106 109 115 119 121 121 122 122 123 126 131 134 134 134 135 137 138 138 137 137 138 138 137 134 134 136 138 139 139 140 141 143 146 151 155 158 160 162 163 163 162 161 161 161 161 162 164 167 169 172 173 174 175
55 57 61 65 71 76 81 85 89 95 99 102 104 105 105 106 108 112 117 121 123 124 125 125 125 127 130 132 133 134 136 138 140 141 141 141 141 141 139 136 135 134 135 135 137 139 142 146 150 156 162 166 168 168 167 165 163 161 161 161 161 161 162 164 167 168 169 170 171
54 55 57 59 62 66 72 78 85 91 95 98 101 103 103 104 107 111 116 120 123 124 124 124 124 125 126 129 132 134 136 139 143 145 146 146 146 144 142 139 136 134 133 132 135 139 145 150 156 161 166 170 171 170 169 166 162 159 159 160 160 159 158 158 160 161 163 164 166